Probability
39 29 13 6 0 0 0 0 0 0 0 0 0 0 3 0 0 0 0 0 3 10 16 32 52 55 52 52 55 65 68 61 58 58 61 68 65 58 52 61 55 55 48 48 55 55 55 61 61
29 23 13 0 0 0 0 0 0 0 0 3 3 3 3 3 3 3 3 6 10 13 6 19 48 48 45 55 61 61 52 58 55 61 58 61 65 58 45 48 58 48 45 39 42 48 55 48 55
23 16 6 0 0 0 0 0 0 0 3 3 3 3 3 0 6 6 6 10 10 13 10 16 42 48 39 52 55 55 55 55 55 58 61 58 61 65 52 48 52 45 35 39 42 52 61 58 58
13 10 0 0 0 0 0 0 0 0 3 3 3 0 0 0 3 6 6 10 13 10 10 16 42 42 42 52 52 52 58 52 55 48 52 61 61 52 42 48 52 52 39 45 52 58 61 61 58
0 3 3 0 0 0 0 0 0 0 0 0 0 0 0 0 3 6 6 6 6 10 16 23 39 42 45 45 52 48 52 45 45 52 55 65 61 55 55 58 61 45 42 45 52 48 55 58 61
0 6 0 0 0 0 0 0 0 0 0 0 0 0 0 0 3 6 6 3 6 6 16 23 48 52 48 45 48 48 48 45 45 48 48 55 58 58 48 58 55 48 42 45 52 48 45 48 52
6 0 0 0 0 0 0 0 0 0 0 0 0 0 3 3 3 3 3 3 6 6 10 10 23 23 39 45 48 52 55 45 52 55 61 52 48 48 61 55 48 42 39 35 42 45 48 55 52
6 0 0 0 0 0 0 0 0 0 0 0 0 0 0 3 3 3 3 3 6 6 6 6 10 13 16 19 35 45 55 55 52 55 55 48 39 29 39 45 45 35 35 39 42 42 42 42 45
3 3 0 0 0 0 0 0 0 0 0 0 0 0 0 3 3 3 0 0 3 3 6 3 6 6 10 10 16 23 32 39 45 39 55 35 6 6 16 26 39 29 35 39 45 45 39 39 42
3 3 0 0 0 0 0 0 0 0 0 0 0 0 3 3 6 0 0 0 0 3 0 6 6 0 0 6 6 10 10 10 10 6 6 0 0 0 10 29 45 32 32 29 39 32 29 13 13
0 0 0 0 0 0 0 0 0 0 0 0 0 0 3 3 3 0 0 0 0 0 0 0 3 0 0 0 0 0 0 0 0 0 3 0 0 0 0 0 0 0 6 6 16 13 10 3 3
3 0 0 0 0 0 0 0 0 0 0 3 3 0 3 3 0 0 0 0 0 0 0 0 3 0 0 0 0 0 0 0 0 0 3 3 0 0 0 0 0 0 0 3 6 6 3 3 3
0 0 0 0 0 0 0 0 0 0 3 3 3 0 0 3 0 0 0 0 0 0 3 3 6 0 0 0 0 0 0 0 0 3 3 3 0 0 0 0 0 0 0 3 3 6 3 3 3
0 0 0 0 0 0 0 0 0 0 3 3 0 0 0 3 3 3 0 0 0 0 3 6 6 0 0 0 0 0 0 0 3 3 0 0 0 0 0 0 0 0 0 3 3 6 3 3 3
0 0 0 0 0 0 0 0 0 0 3 3 0 0 0 3 3 3 3 3 0 0 3 3 6 0 0 0 0 0 0 3 3 0 0 0 0 0 0 0 0 0 0 3 3 6 3 3 3
0 0 0 0 0 0 0 0 0 0 3 3 3 3 6 6 6 6 6 3 3 3 3 6 13 6 0 0 0 0 3 3 0 0 3 6 3 0 0 0 0 3 3 3 6 6 3 3 3
0 0 0 0 0 0 0 0 0 0 3 3 3 3 6 6 6 3 3 3 3 10 10 10 10 6 0 3 3 3 3 6 3 3 6 6 6 3 0 0 3 3 3 6 6 3 3 3 3
0 0 0 0 0 0 0 0 0 0 3 3 3 3 3 3 6 3 6 13 10 10 10 13 13 10 6 6 3 3 0 3 3 3 3 3 6 6 3 3 0 0 3 6 0 3 3 3 3
0 0 0 0 0 0 0 0 0 3 3 3 3 3 3 3 10 10 10 10 16 16 13 6 10 3 3 3 3 3 3 3 10 6 3 3 3 10 6 10 3 0 0 3 0 3 3 3 3
0 0 0 0 0 0 0 0 0 0 0 3 3 6 3 6 6 6 10 10 10 10 10 6 3 3 3 3 3 3 3 3 10 6 6 6 6 10 10 6 6 3 6 6 3 6 3 3 3
0 0 0 0 0 0 0 0 0 0 3 3 3 6 10 6 6 6 6 10 10 10 10 10 3 3 3 3 6 6 6 10 6 10 10 10 6 10 13 13 6 6 3 6 6 10 10 6 3
0 0 0 0 0 0 0 0 0 0 0 0 3 3 10 10 6 6 10 10 10 10 6 3 3 6 6 3 6 10 6 6 10 3 6 10 10 10 13 16 10 10 13 10 13 16 13 13 10
0 0 0 0 0 0 0 0 0 0 0 0 0 3 10 10 10 10 10 10 10 10 6 6 6 6 3 6 6 6 10 6 6 10 10 13 10 10 10 16 10 13 13 10 6 13 10 10 10
0 0 0 0 0 0 0 0 0 0 0 0 0 10 10 10 10 10 6 10 3 3 6 6 6 0 0 3 3 6 6 10 10 10 10 10 10 6 6 10 10 10 10 10 6 10 13 13 10
0 0 0 0 0 0 0 0 0 0 0 0 0 0 13 16 16 10 6 6 6 3 3 10 6 6 3 6 10 10 10 3 6 10 10 13 13 10 10 16 13 16 16 16 16 16 26 16 19
0 0 0 0 0 0 0 0 0 3 3 3 3 3 10 16 16 10 6 6 6 3 10 10 6 6 3 6 10 13 16 13 10 13 13 13 13 13 13 13 13 19 23 23 23 26 26 29 26
0 0 0 0 0 0 0 0 3 3 3 6 3 13 16 13 16 13 6 6 3 6 13 13 10 6 6 13 13 13 16 16 16 16 13 16 13 13 13 13 19 23 26 26 23 29 32 26 29
0 0 0 0 0 0 0 0 0 3 3 6 10 16 16 19 19 19 13 6 3 6 10 16 19 16 19 16 16 23 16 16 16 10 13 16 16 13 19 13 16 23 23 23 26 29 29 32 29
0 0 0 0 0 0 0 0 0 3 3 6 10 10 13 13 19 19 13 10 6 13 13 16 19 19 19 13 13 16 19 23 19 19 16 16 16 13 13 13 16 19 23 13 19 19 23 26 26
0 0 0 0 0 0 0 0 0 3 3 10 10 10 16 19 23 26 23 19 19 19 16 26 26 26 19 16 16 16 19 23 26 29 26 23 26 19 10 10 10 10 16 13 16 19 23 26 26
Height
5869 5868 5867 5867 5867 5866 5864 5864 5863 5863 5863 5862 5862 5862 5862 5863 5864 5867 5865 5864 5864 5864 5865 5865 5865 5865 5865 5864 5865 5864 5865 5865 5865 5866 5866 5867 5867 5867 5868 5868 5869 5871 5872 5873 5875 5876 5877 5877 5878
5871 5870 5870 5869 5868 5867 5867 5865 5865 5864 5864 5863 5863 5864 5864 5864 5864 5865 5864 5865 5865 5865 5866 5866 5865 5865 5865 5865 5865 5865 5866 5866 5866 5867 5867 5867 5867 5868 5868 5868 5868 5870 5872 5873 5875 5876 5877 5878 5878
5873 5873 5873 5871 5869 5869 5869 5868 5867 5867 5866 5866 5865 5865 5865 5866 5866 5865 5866 5866 5866 5867 5867 5867 5867 5866 5866 5867 5867 5867 5867 5867 5868 5868 5868 5868 5868 5868 5868 5867 5868 5870 5872 5874 5875 5876 5877 5878 5879
5876 5876 5875 5873 5872 5872 5871 5870 5869 5869 5869 5868 5867 5867 5867 5867 5867 5867 5867 5867 5868 5868 5868 5868 5868 5868 5868 5868 5868 5867 5867 5868 5868 5869 5869 5869 5869 5869 5869 5869 5870 5872 5873 5874 5875 5876 5877 5878 5878
5879 5878 5877 5875 5875 5874 5873 5872 5872 5871 5871 5870 5870 5869 5869 5869 5869 5869 5869 5869 5869 5869 5869 5869 5869 5869 5869 5869 5869 5869 5869 5869 5869 5869 5869 5870 5870 5870 5871 5871 5872 5873 5874 5875 5875 5876 5878 5878 5879
5882 5880 5879 5878 5877 5877 5876 5875 5874 5874 5873 5873 5872 5872 5871 5871 5871 5870 5870 5870 5870 5870 5870 5870 5870 5870 5870 5870 5870 5870 5870 5870 5870 5870 5870 5871 5871 5871 5872 5872 5873 5874 5874 5875 5876 5877 5878 5879 5879
5884 5883 5882 5881 5880 5880 5879 5877 5876 5876 5876 5875 5875 5874 5873 5873 5873 5872 5872 5872 5872 5872 5871 5871 5871 5871 5871 5871 5871 5871 5871 5871 5871 5871 5871 5871 5872 5872 5873 5873 5874 5875 5875 5876 5877 5878 5878 5879 5880
5887 5887 5885 5885 5884 5883 5882 5880 5879 5879 5878 5878 5877 5876 5876 5876 5875 5874 5874 5874 5874 5873 5873 5873 5872 5872 5872 5872 5872 5872 5872 5873 5873 5873 5873 5873 5873 5874 5874 5874 5875 5875 5876 5877 5877 5878 5878 5879 5880
5889 5890 5888 5888 5887 5886 5884 5883 5883 5881 5881 5880 5880 5879 5878 5878 5877 5876 5876 5876 5875 5875 5875 5874 5874 5874 5874 5874 5874 5874 5874 5874 5874 5874 5874 5874 5875 5875 5875 5875 5875 5876 5877 5877 5878 5878 5879 5880 5881
5892 5892 5892 5891 5890 5889 5888 5886 5885 5884 5883 5883 5882 5882 5881 5880 5879 5879 5878 5878 5877 5877 5876 5876 5876 5875 5875 5875 5875 5876 5876 5876 5876 5876 5876 5876 5876 5876 5876 5876 5877 5877 5878 5878 5879 5879 5880 5881 5882
5895 5895 5895 5894 5893 5892 5891 5890 5888 5887 5886 5886 5885 5884 5883 5882 5881 5881 5880 5880 5879 5879 5878 5878 5878 5877 5877 5877 5877 5877 5877 5877 5877 5877 5877 5877 5877 5878 5878 5878 5878 5878 5879 5880 5880 5881 5881 5882 5883
5898 5898 5898 5897 5896 5895 5894 5893 5892 5891 5890 5889 5888 5887 5886 5885 5884 5883 5883 5882 5881 5881 5880 5880 5880 5879 5879 5879 5879 5879 5879 5879 5879 5879 5879 5879 5879 5879 5879 5879 5879 5879 5880 5880 5881 5881 5882 5883 5883
5901 5901 5900 5899 5898 5897 5896 5896 5895 5894 5893 5892 5891 5890 5888 5887 5886 5886 5885 5884 5883 5883 5882 5882 5881 5881 5881 5881 5881 5881 5881 5881 5881 5881 5881 5880 5880 5880 5880 5880 5880 5881 5881 5882 5882 5882 5883 5883 5883
5904 5903 5903 5902 5901 5900 5899 5899 5898 5897 5896 5895 5894 5893 5891 5890 5889 5888 5887 5887 5886 5885 5884 5884 5883 5883 5883 5882 5882 5882 5882 5882 5882 5882 5882 5882 5882 5882 5881 5881 5881 5882 5882 5883 5883 5883 5883 5883 5884
5906 5906 5905 5904 5903 5903 5903 5902 5901 5900 5899 5898 5897 5895 5894 5893 5892 5891 5890 5889 5888 5887 5887 5886 5886 5885 5884 5884 5884 5884 5884 5884 5884 5883 5883 5883 5883 5883 5882 5882 5882 5883 5883 5883 5883 5883 5883 5884 5884
5907 5908 5907 5907 5906 5905 5907 5906 5905 5903 5902 5901 5899 5898 5897 5896 5895 5894 5893 5892 5891 5890 5889 5888 5887 5887 5886 5885 5885 5885 5885 5885 5885 5885 5884 5884 5884 5884 5884 5883 5883 5883 5883 5883 5884 5884 5884 5884 5884
5909 5909 5909 5909 5908 5908 5908 5907 5907 5906 5905 5904 5902 5901 5900 5899 5898 5897 5896 5895 5893 5892 5891 5890 5890 5888 5887 5887 5887 5887 5887 5887 5887 5886 5886 5885 5885 5885 5885 5885 5884 5884 5884 5884 5884 5884 5884 5884 5884
5911 5911 5911 5911 5910 5910 5910 5909 5909 5908 5907 5906 5905 5903 5902 5901 5900 5899 5898 5897 5896 5895 5894 5893 5892 5891 5890 5890 5890 5889 5889 5889 5889 5888 5888 5887 5887 5886 5886 5886 5886 5885 5885 5885 5885 5885 5885 5885 5885
5911 5912 5912 5912 5912 5912 5912 5911 5911 5910 5909 5908 5907 5906 5904 5903 5902 5901 5900 5899 5898 5897 5896 5895 5894 5894 5893 5892 5892 5892 5891 5891 5891 5890 5890 5889 5888 5888 5888 5887 5887 5887 5886 5886 5886 5886 5886 5885 5885
5912 5912 5913 5913 5913 5913 5913 5913 5913 5912 5911 5910 5909 5908 5906 5905 5904 5903 5902 5901 5900 5899 5898 5897 5897 5896 5895 5895 5894 5894 5893 5893 5892 5892 5891 5891 5890 5890 5889 5889 5888 5888 5887 5887 5887 5887 5886 5886 5885
5912 5913 5914 5914 5914 5914 5915 5915 5914 5913 5912 5912 5911 5909 5908 5907 5906 5905 5904 5903 5902 5902 5901 5900 5899 5898 5897 5897 5896 5896 5895 5894 5894 5894 5893 5892 5892 5891 5890 5890 5889 5888 5888 5887 5887 5886 5886 5886 5885
5912 5913 5914 5914 5914 5915 5915 5915 5915 5914 5914 5913 5912 5911 5910 5909 5908 5907 5906 5905 5904 5903 5902 5902 5901 5900 5899 5898 5898 5897 5897 5896 5895 5895 5894 5893 5893 5892 5891 5890 5889 5889 5888 5887 5887 5886 5886 5885 5885
5911 5912 5913 5914 5914 5915 5915 5915 5916 5915 5914 5914 5913 5912 5911 5910 5909 5908 5907 5907 5906 5905 5904 5903 5902 5901 5900 5900 5899 5899 5898 5897 5896 5895 5895 5894 5893 5892 5891 5891 5890 5889 5888 5887 5886 5886 5885 5885 5884
5910 5911 5912 5913 5913 5914 5915 5915 5916 5915 5915 5914 5914 5913 5912 5911 5910 5909 5908 5908 5907 5906 5905 5904 5903 5903 5902 5901 5900 5899 5898 5898 5897 5896 5895 5894 5893 5893 5892 5891 5890 5889 5887 5887 5886 5885 5884 5884 5883
5909 5910 5911 5911 5912 5913 5914 5914 5916 5915 5915 5914 5914 5913 5913 5912 5911 5910 5909 5908 5908 5907 5906 5905 5904 5904 5903 5902 5901 5900 5899 5898 5897 5896 5895 5894 5893 5892 5891 5890 5889 5888 5887 5886 5885 5884 5883 5882 5882
5907 5909 5910 5911 5911 5912 5913 5913 5915 5915 5914 5914 5914 5913 5913 5912 5911 5910 5909 5909 5908 5908 5907 5906 5905 5904 5903 5902 5902 5901 5900 5899 5897 5896 5895 5894 5893 5891 5890 5889 5888 5887 5885 5884 5883 5882 5881 5880 5880
5904 5906 5908 5909 5909 5910 5911 5912 5914 5913 5914 5913 5913 5913 5912 5912 5911 5910 5909 5909 5909 5908 5907 5906 5906 5905 5904 5903 5902 5901 5899 5898 5897 5896 5894 5893 5892 5890 5889 5887 5886 5885 5883 5882 5881 5879 5879 5878 5877
5902 5903 5905 5906 5907 5908 5909 5910 5912 5912 5912 5912 5912 5912 5912 5911 5911 5910 5909 5908 5908 5908 5907 5906 5905 5904 5903 5902 5901 5900 5899 5897 5896 5894 5893 5891 5890 5888 5887 5885 5884 5882 5881 5880 5878 5877 5876 5875 5874
5898 5900 5901 5903 5905 5906 5907 5910 5910 5910 5911 5911 5911 5911 5911 5911 5910 5909 5908 5908 5907 5906 5906 5905 5904 5903 5902 5901 5900 5899 5898 5896 5895 5893 5891 5889 5887 5886 5884 5883 5881 5879 5878 5877 5876 5874 5873 5873 5872
5894 5896 5898 5900 5902 5903 5904 5909 5907 5908 5908 5908 5909 5909 5909 5909 5909 5908 5907 5906 5906 5905 5904 5904 5903 5902 5901 5900 5898 5897 5896 5894 5893 5891 5889 5887 5885 5883 5882 5880 5878 5877 5875 5874 5872 5871 5870 5869 5869
Wind_Speed
16 16 16 15 16 15 16 15 15 14 13 12 11 10 9 8 7 7 6 6 6 6 5 5 5 5 5 6 6 6 6 6 6 6 6 6 6 6 6 6 7 7 7 7 7 7 6 6 6
16 16 16 16 17 16 16 17 17 16 14 13 12 11 9 9 8 7 7 6 6 6 6 6 6 6 6 7 7 7 7 6 6 6 6 6 6 6 6 6 6 7 7 6 6 6 6 6 6
16 16 17 17 17 17 17 17 17 16 15 14 13 11 10 10 9 8 7 7 7 7 7 7 7 8 7 7 7 7 7 6 6 6 6 6 6 6 6 7 7 7 7 6 6 6 6 6 5
18 18 17 18 17 17 18 18 18 17 16 15 14 12 11 10 10 9 8 7 7 7 7 8 8 8 8 7 7 7 7 6 6 6 7 6 6 6 7 7 7 7 6 6 5 6 5 4 5
18 18 18 18 17 17 18 18 18 17 17 16 15 13 12 11 10 9 8 7 7 7 8 8 8 8 7 8 7 7 6 5 6 7 7 7 6 6 7 7 7 6 6 6 5 6 5 5 4
18 19 18 18 18 18 18 19 19 18 17 16 15 14 12 11 10 9 8 8 8 8 8 8 8 7 7 8 8 8 8 7 7 8 8 8 7 6 7 6 6 6 6 5 5 5 5 5 4
18 19 19 19 19 19 19 20 20 19 17 16 16 15 13 11 11 10 9 9 9 9 9 8 8 8 8 8 9 9 9 9 8 8 8 7 7 6 6 6 6 6 6 6 5 5 5 5 4
19 19 20 20 19 20 20 20 19 19 17 16 15 14 13 12 11 10 10 10 10 9 9 8 8 8 7 8 9 9 9 8 9 8 8 7 7 6 6 6 7 7 7 6 5 5 5 5 4
18 19 19 20 20 20 20 20 19 18 17 17 15 14 14 13 12 11 11 11 11 10 10 9 9 8 8 8 9 9 9 8 8 8 8 8 7 6 6 6 6 6 6 5 5 5 5 5 4
17 18 18 19 20 20 20 20 19 18 18 17 16 15 15 14 13 12 11 12 12 11 11 10 9 9 9 9 9 8 9 9 9 8 8 8 8 6 6 6 6 6 5 5 5 5 5 4 4
16 17 17 18 18 19 19 20 19 19 18 17 17 16 15 14 13 13 12 12 12 11 11 10 10 9 10 10 9 9 10 10 9 9 8 8 8 8 7 6 5 5 5 4 3 3 5 3 2
15 15 16 17 18 19 19 19 19 19 18 18 17 16 16 15 14 13 13 13 12 11 11 10 9 10 10 10 10 10 10 10 9 9 8 7 6 6 6 6 6 5 4 3 2 2 3 2 2
14 14 16 17 18 19 19 19 19 19 18 17 16 16 17 16 15 14 13 13 12 12 12 11 10 9 9 9 9 9 9 9 8 8 8 7 7 6 5 5 5 5 4 3 2 2 2 2 2
12 14 16 17 17 18 19 18 17 18 17 16 16 16 17 16 15 15 14 13 13 12 12 11 10 10 9 9 9 8 8 7 7 7 7 7 6 6 5 5 5 4 4 4 3 2 2 2 1
11 12 14 15 15 16 16 17 16 16 16 16 16 16 16 15 15 15 14 14 13 13 12 11 10 10 9 9 9 8 7 7 8 7 7 7 6 6 6 6 5 4 4 3 3 2 2 2 1
10 10 12 12 13 14 14 15 15 14 14 14 15 15 15 15 15 15 14 14 13 13 12 12 11 11 10 10 9 9 9 8 8 8 8 7 7 6 6 6 5 4 4 4 4 3 3 3 2
8 9 10 11 12 12 12 14 14 14 13 13 14 14 14 14 14 14 14 14 13 13 12 12 12 12 11 10 10 9 9 9 8 8 8 8 8 7 6 5 5 5 4 4 4 3 3 3 2
6 7 8 10 11 11 11 12 13 12 13 13 13 14 14 13 13 13 14 14 13 13 13 12 12 12 12 11 11 10 10 9 8 8 8 8 8 8 7 6 6 5 4 4 4 3 3 2 2
6 6 7 8 9 9 9 10 11 11 11 12 12 12 12 13 13 13 13 13 13 12 12 12 12 12 12 12 12 11 10 10 9 9 9 8 8 8 7 6 6 5 4 4 3 3 3 2 2
7 6 5 6 6 6 7 8 9 9 10 10 10 11 11 12 12 12 12 13 12 12 12 12 12 12 11 11 11 11 11 10 9 8 9 8 8 7 7 6 6 5 4 3 2 2 2 2 3
8 6 4 2 3 4 4 5 5 7 7 8 9 9 10 11 11 11 11 12 12 11 11 11 11 11 10 10 10 10 10 10 9 8 8 8 7 6 6 5 5 5 4 3 3 3 3 2 3
8 6 4 3 1 1 2 3 4 5 5 6 7 8 9 9 9 9 10 10 11 11 10 10 10 10 10 9 9 8 8 9 8 8 7 7 7 6 6 6 5 5 4 4 4 3 3 3 3
9 8 6 5 3 2 2 3 2 3 4 5 6 7 7 8 8 8 8 9 9 9 10 9 9 9 9 8 8 7 7 7 7 7 6 6 6 6 6 6 6 6 5 4 4 4 4 4 4
11 9 8 7 6 5 4 4 3 3 2 3 4 5 5 6 6 6 7 7 8 8 8 8 8 8 8 8 7 7 6 6 6 5 6 6 6 6 6 6 6 6 6 5 6 5 5 5 5
13 11 10 8 8 6 6 5 4 4 3 2 3 3 4 4 5 5 6 7 7 7 7 7 7 7 7 7 7 7 7 6 6 5 5 6 6 6 6 6 7 7 7 7 7 7 7 7 7
15 13 13 11 10 9 8 7 5 5 5 4 3 2 3 3 3 4 4 5 6 6 6 7 7 6 7 7 7 7 7 7 6 6 6 6 6 7 8 8 8 7 8 8 8 9 9 9 9
16 15 14 13 12 12 11 9 7 7 7 6 4 3 2 2 1 1 2 3 4 5 5 6 7 6 7 7 7 7 7 7 7 6 6 7 8 8 9 9 9 9 9 9 9 9 9 10 10
18 17 17 15 14 14 12 11 10 9 8 7 6 5 4 3 3 3 3 4 5 5 5 6 7 7 7 8 7 7 8 8 8 7 8 8 8 9 11 11 11 9 9 10 10 10 10 10 10
20 20 19 17 16 15 15 13 11 11 11 9 8 7 6 5 5 4 4 5 5 6 7 7 8 8 8 9 8 9 9 10 10 10 11 10 10 11 11 11 11 10 10 10 11 11 11 10 11
23 22 21 21 19 18 17 15 13 13 12 11 10 8 8 8 7 7 7 7 7 7 8 8 9 9 10 10 10 10 11 11 12 12 12 12 12 13 13 12 12 11 12 12 12 12 11 12 12
Wind_Direction
67 68 70 72 71 68 69 70 71 72 71 75 81 86 87 84 89 97 99 100 96 98 100 93 90 90 86 80 80 84 85 86 95 98 103 99 104 115 124 127 135 136 137 138 142 144 146 148 146
68 68 70 73 73 71 71 71 72 69 68 70 75 80 79 82 87 94 96 93 93 97 99 92 87 87 83 78 79 83 83 87 94 97 98 101 103 111 121 125 134 139 137 135 139 143 149 153 154
68 70 71 74 75 74 73 71 70 67 66 68 71 75 78 80 84 89 93 91 93 98 97 92 92 89 85 81 82 85 85 90 97 103 101 107 107 111 117 120 128 135 135 132 137 141 151 155 153
74 74 73 75 77 77 75 72 72 70 68 67 69 73 79 79 84 86 85 87 90 94 92 92 91 87 84 86 84 84 85 97 101 106 102 108 109 110 111 119 121 127 131 130 136 137 142 150 153
75 75 73 73 74 77 77 75 72 72 72 70 70 71 75 78 83 83 84 87 89 90 91 91 86 84 80 82 89 91 91 97 101 105 105 106 109 112 114 119 124 129 132 126 136 144 150 149 154
74 74 73 72 74 76 77 75 73 70 71 71 71 72 72 78 78 81 85 85 85 91 96 89 83 85 82 80 85 93 90 84 97 100 102 101 104 111 119 120 125 128 137 141 138 146 152 148 146
72 73 74 76 75 76 76 74 71 68 67 68 68 68 73 75 75 79 87 85 83 88 92 87 84 86 85 83 85 88 88 85 86 90 96 99 103 108 117 123 130 132 134 138 137 144 153 155 155
73 74 75 73 72 73 72 70 67 67 66 67 67 67 70 72 73 79 83 82 86 88 87 87 86 87 88 88 90 88 85 85 85 85 92 95 92 94 110 122 130 130 131 135 142 146 147 150 147
74 74 74 73 71 71 69 67 64 64 65 64 64 65 66 71 75 79 81 83 84 83 80 81 85 86 87 89 88 86 83 86 87 86 87 96 100 100 106 113 124 126 124 128 132 143 144 142 142
78 76 73 73 73 71 69 67 64 61 62 63 64 63 63 68 74 76 81 81 81 80 80 83 85 85 88 88 87 85 83 83 85 88 88 91 95 98 109 112 118 127 127 131 128 138 153 153 156
81 80 77 75 74 71 68 65 64 61 61 64 65 64 64 66 69 71 76 78 78 77 78 80 83 85 86 85 84 83 81 83 85 85 88 88 88 88 95 109 116 122 125 134 144 132 146 148 154
83 83 79 77 75 71 67 65 63 61 61 64 65 65 66 66 67 68 70 73 73 75 78 78 83 83 82 81 81 79 80 81 79 79 84 86 88 91 95 103 103 101 105 128 145 142 139 145 150
87 84 81 79 74 70 67 64 63 61 62 64 63 64 65 66 66 67 68 69 68 70 75 77 79 83 82 81 83 79 81 82 78 79 84 85 90 91 95 102 104 101 103 114 149 149 135 154 164
87 85 82 80 75 70 65 63 61 58 60 62 62 61 62 64 64 65 67 66 65 67 68 73 79 78 78 81 87 87 83 83 78 81 85 89 93 93 95 97 100 102 105 102 121 139 127 121 132
94 88 83 80 78 71 67 64 60 58 58 61 61 59 58 60 63 64 66 66 65 66 65 67 72 72 71 77 81 85 86 87 80 78 81 86 90 98 88 94 100 100 98 98 106 99 122 109 101
102 93 84 80 76 71 66 64 60 56 55 58 60 58 58 59 61 63 64 66 67 66 64 64 68 66 67 70 70 73 76 81 80 75 73 76 77 81 88 90 95 97 97 93 90 78 83 86 90
112 97 88 85 79 76 69 66 59 55 56 57 59 59 57 57 59 61 63 64 66 66 65 65 65 66 70 72 69 71 74 77 74 72 70 69 69 70 80 90 80 87 90 84 83 82 76 76 67
120 100 94 89 82 78 70 62 59 58 57 59 62 61 59 57 58 60 62 64 65 67 66 66 65 67 70 72 70 72 75 77 76 71 69 69 70 69 75 80 73 76 82 84 81 78 66 58 49
138 115 102 91 83 76 68 59 58 58 56 55 59 61 60 57 57 59 61 62 63 65 65 65 66 69 70 71 71 71 72 73 71 68 69 68 68 68 74 73 69 75 76 78 77 65 46 43 30
155 139 119 100 86 77 72 64 57 51 48 51 55 59 60 57 57 58 59 59 62 64 64 64 64 65 67 69 71 71 70 72 71 68 67 65 64 65 68 64 65 65 63 65 64 46 27 22 18
171 162 149 127 94 75 75 61 51 42 42 49 53 56 60 58 56 57 59 59 60 64 66 63 62 61 64 67 69 70 69 67 67 65 63 61 56 58 61 58 50 45 43 34 32 20 12 10 6
192 187 194 210 206 47 46 39 39 37 36 42 50 52 54 55 54 56 61 61 59 62 64 62 59 57 59 65 67 66 64 62 59 56 55 53 50 45 38 31 25 18 11 6 2 357 358 353 348
211 218 221 227 247 276 321 341 8 10 26 37 46 49 51 53 54 58 62 60 58 58 57 57 57 56 54 53 56 57 53 50 46 44 42 40 41 37 26 18 14 8 358 347 340 338 334 335 335
222 228 231 236 247 264 290 306 324 334 353 24 40 42 46 49 54 60 62 55 51 51 50 49 49 50 49 45 43 43 42 37 32 30 26 24 23 17 12 4 0 357 349 338 328 322 318 318 317
227 234 237 244 256 269 271 283 302 303 298 319 3 24 37 44 54 55 56 47 43 41 40 38 36 34 33 33 33 33 28 22 16 12 9 5 2 357 353 346 343 337 332 327 324 317 312 309 308
231 239 245 254 262 263 265 271 282 285 287 288 319 352 15 31 41 45 46 35 28 28 27 24 20 19 19 18 19 14 9 4 360 355 349 346 343 341 337 335 332 325 321 318 315 313 309 306 305
230 237 246 254 258 259 261 266 266 271 278 281 292 315 337 348 353 20 23 18 6 6 5 6 9 4 1 1 0 356 350 348 345 341 337 332 331 330 328 329 324 321 319 315 315 313 308 305 302
232 237 241 248 254 258 259 263 268 270 274 274 276 283 293 303 308 315 342 353 349 344 343 342 353 346 342 340 339 337 334 332 330 326 326 319 324 323 321 321 318 317 323 321 313 309 309 311 309
233 237 242 248 252 257 259 259 263 266 272 274 274 276 280 284 293 298 307 320 326 325 327 330 331 329 327 328 326 324 324 326 327 322 318 316 315 315 317 323 319 311 312 311 309 307 306 306 308
234 238 243 248 254 258 260 260 263 264 267 270 271 272 276 280 283 284 283 291 301 307 309 312 315 314 317 319 319 318 316 315 314 315 316 313 309 311 313 317 315 310 308 307 304 301 303 306 306